Portada
METAR-TAF:

METAR-TAF

Aeroports :

Guwahati, Índia

latitud: 26-06-22N, longitud: 091-35-09E, altitud: 49 m

Observació

L'informe es va fer fa 10 minuts, a les 22:00 UTC
Vent calma
Temperatura 20°C
Humitat 94%
Pressió 1010 hPa
Visibilitat: 2000 m
Escasses núvols a una alçada de 1800 ft
Núvols disperses a una alçada de 10000 ft
boirina

METAR: VEGT 122200Z 00000KT 2000 BR FEW018 SCT100 20/19 Q1010 NOSIG

Hora: 03:40 (22:10 UTC)


TAF: manca

Observacions i pronòstics meteorològics de més de 4000 aeroports (METAR i TAF).

Les estacions disponibles són els punts grocs i vermells al mapa.

Posi el ratolí al punt desitjat per veure el nom de l'estació.

Feu clic per veure les observacions i els pronòstics meteorològics.

Per canviar el mapa: feu clic els botons verds amb una creu de color negre per apropar; al botó verd amb un guió per allunyar la imatge; o en les fletxes verdes per a mapes adjacents.


METAR-TAF: